Vorticity
nan nan nan nan nan nan nan nan nan nan nan nan nan nan nan nan nan nan nan nan nan nan nan nan nan nan nan nan nan nan nan nan nan nan nan nan nan nan nan nan nan nan nan nan nan nan nan nan nan
nan -3 4 6 8 9 10 8 9 7 2 -0 3 5 7 18 23 11 8 9 5 4 6 5 5 5 5 5 6 6 6 5 6 6 6 5 6 5 6 6 6 6 6 6 6 6 6 5 nan
nan 9 4 5 10 15 5 9 11 7 4 2 3 4 15 12 6 6 11 6 5 4 6 7 6 5 5 6 6 6 7 6 6 7 7 5 6 6 6 5 6 6 6 6 6 5 6 4 nan
nan 11 5 11 15 10 8 11 8 5 1 9 9 12 13 9 10 8 6 2 5 8 5 7 7 5 5 6 6 7 6 7 6 6 7 8 8 6 5 6 6 5 5 6 8 7 4 5 nan
nan 7 8 8 11 8 14 11 1 10 5 6 15 10 4 10 6 4 5 6 2 5 6 5 5 5 5 6 6 6 8 8 5 7 8 8 6 7 7 6 6 5 6 8 10 7 4 4 nan
nan 6 6 8 5 7 12 0 4 6 8 12 9 4 6 7 3 3 3 5 9 6 5 4 4 5 5 6 7 5 7 7 7 8 6 6 6 7 7 6 5 6 9 9 8 7 5 4 nan
nan 4 8 10 1 3 5 0 5 6 4 10 3 4 7 6 2 5 5 5 5 6 6 6 4 4 6 4 6 6 6 6 7 6 5 5 7 7 6 6 5 6 8 7 5 5 5 5 nan
nan 5 10 10 7 4 1 -1 1 3 9 6 5 9 8 7 2 2 6 3 3 5 3 9 7 5 4 6 4 5 5 6 7 6 7 4 3 5 5 4 4 6 6 5 5 5 5 4 nan
nan -1 8 13 11 7 5 3 5 9 12 3 16 16 7 6 4 0 3 5 9 8 5 5 8 5 3 8 4 5 6 4 1 4 3 3 3 5 4 5 6 5 4 5 4 4 3 4 nan
nan 6 6 13 20 11 6 7 6 12 7 12 21 12 7 5 4 3 2 6 2 9 11 8 5 7 3 7 5 3 3 3 5 5 3 5 7 6 7 4 4 4 4 5 5 5 4 2 nan
nan 3 6 15 19 11 6 1 6 12 10 17 12 7 5 3 5 3 3 8 9 6 8 6 6 8 7 2 6 9 4 6 8 6 7 6 8 8 3 4 5 6 7 6 7 7 8 8 nan
nan 8 11 10 15 14 5 2 6 5 12 14 11 6 6 4 5 5 7 5 5 4 14 7 8 5 7 6 9 9 7 7 10 8 6 5 6 7 8 9 4 6 6 7 14 8 7 8 nan
nan 6 13 10 7 8 8 5 4 2 8 8 9 6 4 6 6 6 7 6 8 6 2 6 5 8 11 5 6 5 8 9 8 7 8 8 7 7 9 8 10 10 7 8 7 5 8 9 nan
nan 7 4 10 6 6 6 3 3 8 11 13 7 8 5 6 6 4 7 7 0 5 7 6 4 3 9 13 13 6 6 5 10 10 7 8 8 8 8 7 7 7 9 8 7 10 7 3 nan
nan 14 5 7 7 4 -0 4 4 7 11 19 11 6 6 5 7 5 5 4 7 7 7 3 7 7 3 9 5 2 5 14 7 6 6 8 9 7 7 7 10 9 8 9 6 6 5 8 nan
nan 7 12 10 2 6 -0 4 2 6 14 15 11 6 7 7 6 5 6 6 6 6 7 5 8 7 6 5 4 9 5 7 7 9 7 7 6 7 6 7 8 9 7 6 7 9 10 9 nan
nan 8 13 5 8 0 10 13 8 5 15 15 8 6 6 7 6 6 6 7 6 6 7 6 8 8 7 5 9 10 9 6 10 8 9 10 5 5 7 9 9 4 7 10 8 6 7 9 nan
nan 9 12 0 11 5 12 8 7 4 12 16 10 6 5 8 6 7 5 7 8 5 4 10 7 7 7 5 7 7 9 9 7 6 10 9 8 7 6 9 8 5 9 8 6 10 8 8 nan
nan 7 -2 16 20 8 11 11 7 6 11 10 10 7 6 6 8 9 6 7 7 6 4 9 9 5 4 7 9 8 8 6 8 10 11 8 9 9 6 6 6 8 9 11 6 6 8 7 nan
nan 9 17 10 8 11 11 6 10 7 9 7 11 5 4 10 11 8 7 7 7 7 7 6 7 5 3 4 8 9 8 9 9 9 12 8 8 7 9 12 9 9 7 5 7 8 10 9 nan
nan 8 11 3 2 3 0 6 8 9 6 9 17 7 6 6 5 10 6 6 7 7 7 7 7 5 4 7 5 6 10 12 8 9 10 7 8 5 7 8 12 10 8 7 8 6 7 10 nan
nan 15 12 1 -7 9 -2 9 13 14 4 12 11 10 5 5 9 8 8 5 7 6 7 8 6 6 4 9 8 5 8 7 4 11 12 9 8 9 7 7 5 7 10 10 10 8 8 9 nan
nan 14 10 2 -2 10 4 -4 8 7 23 30 7 12 10 5 7 10 8 5 10 6 7 8 7 6 6 7 7 5 6 7 7 10 10 9 9 9 8 6 7 8 6 11 11 7 7 10 nan
nan 7 11 10 13 3 14 -2 6 5 21 25 21 9 8 9 5 5 7 8 9 8 8 8 7 5 8 6 7 9 10 11 8 6 7 10 7 8 10 8 9 8 8 7 8 7 6 6 nan
nan 4 9 9 4 13 16 8 13 13 6 7 8 9 13 23 13 7 9 7 4 13 7 8 8 6 7 6 6 7 4 5 13 13 6 7 9 12 8 7 6 6 8 8 8 7 6 6 nan
nan 7 4 6 3 15 11 11 13 12 5 6 6 9 14 8 8 20 6 8 7 12 11 8 8 7 6 7 6 7 6 6 9 4 7 7 7 9 13 11 7 8 8 10 8 6 7 9 nan
nan 7 4 11 7 1 7 10 13 6 6 5 6 6 7 11 29 21 13 17 4 1 22 14 8 7 8 5 7 8 7 6 6 10 8 8 15 14 10 8 7 10 10 8 7 8 9 10 nan
nan 16 13 2 9 15 10 7 7 6 2 3 6 7 6 8 10 16 24 15 21 12 6 21 25 6 8 6 8 8 8 6 5 8 8 8 12 10 4 10 9 9 9 9 8 7 10 8 nan
nan 4 9 11 11 16 7 1 14 14 5 6 6 6 8 8 12 11 10 8 16 14 2 8 25 20 10 8 9 8 9 8 7 8 7 8 8 6 9 6 7 12 7 9 6 6 12 11 nan
nan nan nan nan nan nan nan nan nan nan nan nan nan nan nan nan nan nan nan nan nan nan nan nan nan nan nan nan nan nan nan nan nan nan nan nan nan nan nan nan nan nan nan nan nan nan nan nan nan
CAPE
6 0 35 269 125 412 320 313 173 31 49 28 89 231 224 156 240 294 426 488 347 652 1081 1301 2282 2260 1994 1803 1688 1661 1666 1650 1599 1773 2202 2424 2342 2685 2871 2965 2953 3016 2920 2409 2473 2455 2362 2366 1842
0 0 362 490 309 406 562 171 147 33 6 25 124 201 39 33 32 132 420 420 202 286 582 862 2249 2335 1934 1659 2214 1859 1961 1856 1649 1556 1579 2221 2062 2380 2419 2504 2601 2978 2691 2619 2378 2498 2513 2404 2171
37 148 341 286 439 591 446 109 42 23 3 50 271 132 6 0 14 161 259 167 92 463 1067 1777 2311 2455 1890 1958 2007 1981 1983 1982 1599 2026 2131 1706 2201 2107 2255 2389 2459 2615 2483 2344 2152 2295 2034 1856 1614
248 454 400 639 466 501 293 91 2 11 59 107 182 0 9 40 84 54 121 123 379 935 1163 2290 2537 2079 1839 1970 1764 1914 1936 1724 1557 1737 1632 1963 1798 2004 2148 2263 2311 2353 2403 2259 2176 2130 2198 2014 1829
184 800 695 354 736 330 125 0 60 47 61 158 0 11 15 109 40 85 216 407 513 693 1116 1588 2519 2374 1843 1853 1837 1887 1825 1810 1837 1732 1852 1888 1954 1921 2050 2265 2165 2245 2207 2108 2308 2303 2335 2146 1809
493 909 604 582 681 94 54 35 276 185 230 93 0 3 32 87 81 162 247 600 607 405 895 1316 2151 2103 1755 1646 1887 1806 1801 1936 1876 1978 2049 1883 2181 2035 2189 2114 2170 2164 2278 2409 2355 2417 2453 2285 1849
434 872 446 346 693 430 57 127 420 291 231 65 0 18 25 48 102 133 309 525 495 658 989 1328 1376 1703 1825 1707 1980 1918 1980 1950 1874 1970 2211 2211 2061 2005 1929 2129 2177 2154 2321 2359 2296 2448 2518 2068 1685
649 897 357 411 680 613 645 379 788 648 285 142 123 43 5 72 56 115 122 579 431 406 774 1425 1593 1607 1493 1617 1833 1941 1962 1858 1890 1713 1976 2026 1979 1798 1920 2625 2587 2218 2200 2136 2259 2443 2378 1878 1611
366 99 191 229 507 834 618 613 756 888 315 356 265 17 7 30 73 149 274 372 386 594 632 723 1193 1588 1751 1596 1710 1874 1976 1909 1782 1518 1746 2006 1757 1720 1841 2595 2458 2041 2109 2140 2189 2307 2344 1966 1710
373 70 110 286 470 525 353 234 593 616 400 489 13 10 2 32 126 198 217 158 204 537 614 1006 1069 1192 1639 869 1956 1872 1612 1859 2378 1701 1943 1227 1585 1417 1451 2001 2164 1861 1928 1857 2064 2252 2404 2281 1536
194 210 345 508 438 248 526 723 619 619 554 259 28 0 32 18 103 88 152 321 236 667 854 825 1316 1556 1460 1309 1376 1655 1738 1756 1961 1161 2275 2115 1864 1108 966 1842 1601 1964 1886 1737 1656 2225 2237 2566 2118
105 229 331 475 310 204 498 417 608 550 418 76 29 19 26 45 72 82 81 280 502 879 901 1291 1616 2375 2054 237 976 1568 1522 1952 1458 1785 2736 2426 1948 1875 2166 1903 2062 1553 2797 1125 2323 698 1025 1799 1034
186 181 427 192 342 249 148 162 430 565 392 197 50 37 21 39 65 99 122 96 826 477 1149 1378 1784 1816 1844 463 694 366 1048 1389 1043 2128 1914 2485 966 2723 2101 2154 1694 1402 2609 1768 2284 1545 2695 2172 1229
67 117 185 321 270 77 38 69 55 430 380 450 79 57 16 35 67 176 263 116 250 544 479 978 1561 1277 2118 1755 826 340 692 843 1322 1777 2340 2052 1904 1489 2074 2628 1963 2472 1975 2098 1634 1176 1805 1088 1692
102 84 82 327 142 149 82 119 130 714 530 615 114 48 22 34 78 154 246 205 118 214 560 554 878 1472 2060 2078 1667 848 663 775 1747 1493 2768 2497 2308 2762 852 1978 1902 2564 2878 2629 3183 2424 3263 1626 1474
37 133 104 406 357 231 114 156 123 394 482 368 82 43 30 45 53 86 189 223 232 255 740 598 225 922 1865 2645 2190 663 918 90 116 1672 1871 2533 2863 2873 2834 2647 1872 2682 2683 1175 2533 2128 1965 2640 1755
68 95 87 80 270 271 233 270 118 212 570 172 75 46 33 62 67 71 28 57 37 457 771 550 968 802 1666 2124 2043 1584 783 1047 1586 1968 2282 2345 2643 2370 2723 2517 2748 2583 2307 2386 1201 793 2011 2649 1037
23 66 96 116 227 337 244 158 123 102 303 169 105 65 67 91 56 61 22 20 71 446 819 1087 1080 1850 2748 1971 2865 2064 2589 1685 1462 863 1793 2020 2294 2248 1572 2400 2745 2812 2570 1570 831 2282 2176 2357 516
10 102 87 70 553 330 169 152 68 103 614 186 94 65 73 113 99 17 14 15 68 375 713 1203 2112 2476 2163 2072 2072 2676 2373 2927 2189 973 1903 1824 2635 2347 1892 1868 2656 3011 1139 2165 2852 2439 2366 2781 2166
0 24 106 173 235 192 133 43 97 186 224 512 123 77 122 115 48 47 19 28 90 418 772 1293 2171 2354 2585 2072 2102 1978 764 2111 2331 2173 2685 2678 2512 2550 2361 2547 2501 2541 2460 3098 2860 3358 2562 2336 2057
0 8 0 260 59 0 12 53 2 26 8 115 415 229 163 213 118 36 67 30 21 357 737 1228 2269 2114 2546 2643 2126 517 1025 2071 2344 1807 2421 2425 2466 2350 2780 2543 2960 1594 2711 2781 3287 3147 3044 2625 1670
0 104 0 364 46 60 152 159 107 133 142 148 504 793 350 211 133 34 75 40 7 200 462 1359 2459 2169 2138 1397 2658 3065 2295 1025 2546 2283 2317 2361 2214 2683 2739 2538 2965 2632 2830 3165 3369 2080 2915 3677 2813
2 51 23 28 33 77 101 90 121 58 11 265 467 833 718 279 126 109 114 70 41 115 336 1103 2180 2480 2699 2776 2361 2546 390 0 822 387 2905 2347 2737 2029 2246 3162 2796 2905 758 1596 3394 3113 3772 3141 2574
0 0 47 8 0 86 84 136 164 51 163 510 782 817 769 540 243 189 71 88 54 108 236 971 1845 2589 2649 2963 2355 2543 966 299 931 1122 2787 2444 2413 2669 2635 2535 3327 3072 1308 2656 3104 3144 3386 3380 3259
2 17 53 49 0 3 155 157 228 151 14 48 283 237 361 743 379 380 303 307 163 211 234 1026 1781 2676 2822 2632 2679 2343 2258 518 682 2126 2160 1475 1774 1958 2579 2972 3513 3170 3392 3133 3147 3660 3423 3371 3636
41 49 82 37 18 5 230 244 154 113 35 41 48 93 229 733 698 625 527 377 363 339 422 1125 2100 2660 2707 2757 3030 3237 2665 2157 1534 1983 1673 400 788 481 2026 2714 2954 3226 2584 2665 3166 3478 3112 3410 3165
31 26 34 57 4 39 441 231 174 41 56 31 1 4 62 223 729 396 669 503 299 620 386 1390 2164 2650 2762 2591 3007 3423 3437 3274 2519 3105 3317 2263 572 897 2843 2427 2896 3061 2803 2872 2946 3105 3270 3164 3734
1 19 6 14 48 128 432 293 347 111 63 39 4 0 0 15 120 552 292 210 800 871 788 1088 2606 2979 3085 2916 3073 3028 3226 3361 3244 3757 2894 3231 1698 990 670 4 2541 3226 3200 3067 2882 2920 3059 3188 3409
0 0 0 1 36 62 330 271 175 120 32 8 2 0 0 1 3 15 64 53 266 206 47 43 534 2641 2810 3055 3084 3033 2990 3135 3413 3065 2930 2674 3115 838 0 0 204 2750 2930 3016 3348 2815 2563 2356 2692
0 0 6 14 4 29 259 129 61 64 88 0 0 0 0 0 1 4 3 6 10 55 23 0 1 132 437 1118 2532 2805 3311 3223 3151 3177 3025 3021 3071 2814 1513 408 1918 2256 2932 2864 3411 2698 2494 2627 3059